NOAA 16 DEB, 42350

Orbit data source: Space-Track

NOAA 16 DEB, 42350 is space debris in SSO originally from a launch on Thu, 21 Sep 2000 UTC launched from the Air Force Western Test Range (AFWTR). Debris objects in space refer to the collection of defunct objects orbiting the Earth. Examples of debris include non-operational satellites, rocket bodies, and fragments generated from explosions, collisions, or faulty payload assembly.

Loading next visibility...
Identifier
42350, 2000-055QS
Orbit
SSO
Country
Flag of USUS
Related business
Manufacturer
Unknown
Mission
Spacecraft
Bus & Motor
Unknown
Mass
Unknown
Launch date (UTC)
2000-09-21 (25 years ago)
Launch vehicle
Unknown
Launch site
Air Force Western Test Range (AFWTR)
Object type
Payload
Rocket body
Debris
Shape & HBR
Unknown shape, 0.1 m
Radar Cross Section
Small (<0.1 m²)

Expand to show TLE details & history
Last TLE update: 13 hours ago

TLE from 13 hours ago
0 NOAA 16 DEB
1 42350U 00055QS  25299.72361932  .00001089  00000-0  63826-3 0  9990
2 42350  98.6312 288.9322 0025529 170.8126 189.3518 14.10068536463357
Epoch: 2025-10-26T17:22Z
TLE epoch observation values (Epoch: 2025-10-26T17:22:00.709Z)
Latitude
0.00005°
Longitude
-6.90648°
Altitude
880.276 km
Speed
7.403 km/s
True Right ascension
19h 15m 43s
True Declination
0° 00' 00"
Sunlit
Object was in daylight at epoch
Visualization orbit readout
Latitude
Unknown
Longitude
Unknown
Altitude
Unknown
Speed
Unknown
Apparent Right ascension
Unknown
Apparent Declination
Unknown
Sunlit
N/A
Visualization observer readout
Local Sidereal Time
01:16:24
Azimuth
Unknown
Elevation
Unknown
Doppler factor
Unknown
Orbital elements
Apogee altitude
874.774 km
Perigee altitude
837.837 km
Semi-major axis
7,234.442 km
Eccentricity
0.00255
Inclination
98.6312°
RAAN
288.9322°
Arg. of periapsis
170.8126°
True anomaly
189.30441°
Mean anomaly
189.3518°
Eccentric anomaly
189.32809°
Mean motion
3.52724 °/min
Orbital period
102.06 mins
BSTAR
0.00063826
Loading maneuver chart data...
Computing Atmospheric mass density...
Loading historical data...
Loading historical data...
Loading historical data...
Loading historical data...
Loading historical data...
Loading historical data...
Loading historical data...

Documentation

Showing up to 5 results
|